BANGABANDHUSAT-1

Last updated on Tue Oct 15 2024 00:02:41 GMT+0000 (Coordinated Universal Time)

1 43463U 18044A 24288.19910556 -.00000365 00000+0 00000+0 0 9990 2 43463 0.0209 119.4459 0002373 89.4986 5.0906 1.00270288 23581
UTC large
Height (km)
Speed (km/s)
/
Latitude / Longitude
Inclination (degrees)
Orbital Period (minutes)
Azimuth
Elevation
Range (km)
Doppler Factor

Next 0 passes for location: London (51.5072 / 0.1276)

Sorry there are no passes over London.